Time,TemperatureF,DewpointF,PressureIn,WindDirection,WindDirectionDegrees,WindSpeedMPH,WindSpeedGustMPH,Humidity,HourlyPrecipIn,Conditions,Clouds,dailyrainin,SoftwareType,DateUTC
2013-07-02 00:05:00,72.5,53.9,30.04,North,355,2.0,2.0,52,0.00,,,0.00,Wunderground v.1.15,2013-07-02 05:05:00,
2013-07-02 00:10:00,72.3,54.2,30.04,North,360,2.0,4.0,53,0.00,,,0.00,Wunderground v.1.15,2013-07-02 05:10:00,
2013-07-02 00:15:00,72.1,54.0,30.04,North,355,3.0,4.0,53,0.00,,,0.00,Wunderground v.1.15,2013-07-02 05:15:00,
2013-07-02 00:20:00,71.9,53.8,30.05,North,5,3.0,3.0,53,0.00,,,0.00,Wunderground v.1.15,2013-07-02 05:20:00,
2013-07-02 00:25:00,71.8,53.7,30.05,North,355,2.0,5.0,53,0.00,,,0.00,Wunderground v.1.15,2013-07-02 05:25:00,
2013-07-02 00:30:00,71.7,53.7,30.05,North,5,3.0,3.0,53,0.00,,,0.00,Wunderground v.1.15,2013-07-02 05:30:00,
2013-07-02 00:40:00,71.5,54.0,30.05,North,10,4.0,5.0,54,0.00,,,0.00,Wunderground v.1.15,2013-07-02 05:40:00,
2013-07-02 00:45:00,71.4,53.9,30.04,North,355,5.0,5.0,54,0.00,,,0.00,Wunderground v.1.15,2013-07-02 05:45:00,
2013-07-02 00:50:00,71.5,53.5,30.05,North,355,5.0,5.0,53,0.00,,,0.00,Wunderground v.1.15,2013-07-02 05:50:00,
2013-07-02 00:55:00,71.5,53.5,30.04,NNE,13,5.0,5.0,53,0.00,,,0.00,Wunderground v.1.15,2013-07-02 05:55:00,
2013-07-02 01:05:00,71.7,53.7,30.05,North,360,6.0,6.0,53,0.00,,,0.00,Wunderground v.1.15,2013-07-02 06:05:00,
2013-07-02 01:10:00,71.7,53.7,30.05,North,5,6.0,6.0,53,0.00,,,0.00,Wunderground v.1.15,2013-07-02 06:10:00,
2013-07-02 01:15:00,71.6,53.6,30.05,NNE,12,5.0,7.0,53,0.00,,,0.00,Wunderground v.1.15,2013-07-02 06:15:00,
2013-07-02 01:20:00,71.5,53.5,30.05,NNE,17,5.0,7.0,53,0.00,,,0.00,Wunderground v.1.15,2013-07-02 06:20:00,
2013-07-02 01:25:00,71.3,53.8,30.05,North,5,5.0,7.0,54,0.00,,,0.00,Wunderground v.1.15,2013-07-02 06:25:00,
2013-07-02 01:30:00,71.2,53.7,30.05,NNE,18,5.0,5.0,54,0.00,,,0.00,Wunderground v.1.15,2013-07-02 06:30:00,
2013-07-02 01:40:00,70.8,53.8,30.05,NNE,15,4.0,4.0,55,0.00,,,0.00,Wunderground v.1.15,2013-07-02 06:40:00,
2013-07-02 01:45:00,70.7,53.7,30.04,NNE,32,4.0,4.0,55,0.00,,,0.00,Wunderground v.1.15,2013-07-02 06:45:00,
2013-07-02 01:50:00,70.6,53.6,30.04,NNE,25,4.0,4.0,55,0.00,,,0.00,Wunderground v.1.15,2013-07-02 06:50:00,
2013-07-02 01:55:00,70.5,53.6,30.04,NE,51,4.0,5.0,55,0.00,,,0.00,Wunderground v.1.15,2013-07-02 06:55:00,
2013-07-02 02:00:00,70.4,54.0,30.04,North,5,4.0,4.0,56,0.00,,,0.00,Wunderground v.1.15,2013-07-02 07:00:00,
2013-07-02 02:10:00,70.1,54.2,30.04,NNE,30,3.0,4.0,57,0.00,,,0.00,Wunderground v.1.15,2013-07-02 07:10:00,
2013-07-02 02:15:00,69.9,54.0,30.04,NNE,20,3.0,4.0,57,0.00,,,0.00,Wunderground v.1.15,2013-07-02 07:15:00,
2013-07-02 02:20:00,69.9,54.0,30.04,North,355,4.0,5.0,57,0.00,,,0.00,Wunderground v.1.15,2013-07-02 07:20:00,
2013-07-02 02:25:00,69.8,53.9,30.04,NNE,32,3.0,5.0,57,0.00,,,0.00,Wunderground v.1.15,2013-07-02 07:25:00,
2013-07-02 02:30:00,69.7,53.8,30.04,North,5,4.0,4.0,57,0.00,,,0.00,Wunderground v.1.15,2013-07-02 07:30:00,
2013-07-02 02:40:00,69.4,53.5,30.04,NNE,22,3.0,3.0,57,0.00,,,0.00,Wunderground v.1.15,2013-07-02 07:40:00,
2013-07-02 02:50:00,69.0,53.6,30.04,North,5,3.0,4.0,58,0.00,,,0.00,Wunderground v.1.15,2013-07-02 07:50:00,
2013-07-02 03:00:00,68.6,53.7,30.04,North,9,4.0,4.0,59,0.00,,,0.00,Wunderground v.1.15,2013-07-02 08:00:00,
2013-07-02 03:05:00,68.5,53.6,30.04,North,5,3.0,4.0,59,0.00,,,0.00,Wunderground v.1.15,2013-07-02 08:05:00,
2013-07-02 03:10:00,68.5,53.6,30.04,NE,49,2.0,2.0,59,0.00,,,0.00,Wunderground v.1.15,2013-07-02 08:10:00,
2013-07-02 03:20:00,68.4,53.0,30.03,North,360,3.0,3.0,58,0.00,,,0.00,Wunderground v.1.15,2013-07-02 08:20:00,
2013-07-02 03:25:00,68.3,52.9,30.03,North,5,3.0,3.0,58,0.00,,,0.00,Wunderground v.1.15,2013-07-02 08:25:00,
2013-07-02 03:35:00,68.2,52.9,30.04,North,360,2.0,3.0,58,0.00,,,0.00,Wunderground v.1.15,2013-07-02 08:35:00,
2013-07-02 03:45:00,68.1,53.2,30.04,North,5,3.0,3.0,59,0.00,,,0.00,Wunderground v.1.15,2013-07-02 08:45:00,
2013-07-02 03:50:00,67.9,53.0,30.04,North,360,3.0,4.0,59,0.00,,,0.00,Wunderground v.1.15,2013-07-02 08:50:00,
2013-07-02 03:55:00,67.8,52.9,30.04,NNE,13,3.0,4.0,59,0.00,,,0.00,Wunderground v.1.15,2013-07-02 08:55:00,
2013-07-02 04:00:00,67.8,52.5,30.04,North,5,3.0,4.0,58,0.00,,,0.00,Wunderground v.1.15,2013-07-02 09:00:00,
2013-07-02 04:05:00,67.9,52.6,30.04,NNE,13,3.0,5.0,58,0.00,,,0.00,Wunderground v.1.15,2013-07-02 09:05:00,
2013-07-02 04:10:00,68.0,52.7,30.04,North,5,4.0,5.0,58,0.00,,,0.00,Wunderground v.1.15,2013-07-02 09:10:00,
2013-07-02 04:15:00,68.0,52.7,30.04,NNE,20,4.0,5.0,58,0.00,,,0.00,Wunderground v.1.15,2013-07-02 09:15:00,
2013-07-02 04:20:00,67.9,52.6,30.04,NNE,14,3.0,3.0,58,0.00,,,0.00,Wunderground v.1.15,2013-07-02 09:20:00,
2013-07-02 04:30:00,67.7,52.9,30.04,NNE,25,2.0,2.0,59,0.00,,,0.00,Wunderground v.1.15,2013-07-02 09:30:00,
2013-07-02 04:35:00,67.6,52.8,30.04,NNE,24,2.0,3.0,59,0.00,,,0.00,Wunderground v.1.15,2013-07-02 09:35:00,
2013-07-02 04:40:00,67.4,52.6,30.05,North,5,3.0,4.0,59,0.00,,,0.00,Wunderground v.1.15,2013-07-02 09:40:00,
2013-07-02 04:50:00,67.2,52.8,30.05,North,5,3.0,3.0,60,0.00,,,0.00,Wunderground v.1.15,2013-07-02 09:50:00,
2013-07-02 04:55:00,67.0,52.7,30.05,North,360,3.0,3.0,60,0.00,,,0.00,Wunderground v.1.15,2013-07-02 09:55:00,
2013-07-02 05:05:00,66.8,52.9,30.05,North,355,2.0,2.0,61,0.00,,,0.00,Wunderground v.1.15,2013-07-02 10:05:00,
2013-07-02 05:10:00,66.7,52.8,30.05,NNE,17,3.0,3.0,61,0.00,,,0.00,Wunderground v.1.15,2013-07-02 10:10:00,
2013-07-02 05:20:00,66.4,53.0,30.05,North,355,2.0,2.0,62,0.00,,,0.00,Wunderground v.1.15,2013-07-02 10:20:00,
2013-07-02 05:30:00,66.1,53.1,30.06,North,349,2.0,2.0,63,0.00,,,0.00,Wunderground v.1.15,2013-07-02 10:30:00,
2013-07-02 05:35:00,65.9,53.4,30.06,NNW,346,2.0,2.0,64,0.00,,,0.00,Wunderground v.1.15,2013-07-02 10:35:00,
2013-07-02 05:45:00,65.4,53.7,30.06,NNW,343,2.0,2.0,66,0.00,,,0.00,Wunderground v.1.15,2013-07-02 10:45:00,
2013-07-02 05:55:00,65.0,53.4,30.06,NNW,342,2.0,2.0,66,0.00,,,0.00,Wunderground v.1.15,2013-07-02 10:55:00,
2013-07-02 06:00:00,64.8,53.6,30.06,NNW,344,2.0,2.0,67,0.00,,,0.00,Wunderground v.1.15,2013-07-02 11:00:00,
2013-07-02 06:10:00,64.5,53.3,30.06,NNW,343,2.0,2.0,67,0.00,,,0.00,Wunderground v.1.15,2013-07-02 11:10:00,
2013-07-02 06:15:00,64.3,53.5,30.07,NNW,342,2.0,2.0,68,0.00,,,0.00,Wunderground v.1.15,2013-07-02 11:15:00,
2013-07-02 06:20:00,64.1,53.3,30.07,NNW,343,2.0,3.0,68,0.00,,,0.00,Wunderground v.1.15,2013-07-02 11:20:00,
2013-07-02 06:25:00,64.0,53.2,30.07,North,349,2.0,3.0,68,0.00,,,0.00,Wunderground v.1.15,2013-07-02 11:25:00,
2013-07-02 06:35:00,64.3,53.5,30.07,NNW,348,2.0,3.0,68,0.00,,,0.00,Wunderground v.1.15,2013-07-02 11:35:00,
2013-07-02 06:40:00,64.3,53.5,30.07,North,5,3.0,3.0,68,0.00,,,0.00,Wunderground v.1.15,2013-07-02 11:40:00,
2013-07-02 06:50:00,64.4,53.6,30.07,NNW,341,3.0,3.0,68,0.00,,,0.00,Wunderground v.1.15,2013-07-02 11:50:00,
2013-07-02 06:55:00,64.4,53.6,30.08,NNW,342,3.0,3.0,68,0.00,,,0.00,Wunderground v.1.15,2013-07-02 11:55:00,
2013-07-02 07:00:00,64.4,53.2,30.08,NNW,344,3.0,3.0,67,0.00,,,0.00,Wunderground v.1.15,2013-07-02 12:00:00,
2013-07-02 07:10:00,64.8,53.6,30.08,NNW,343,3.0,3.0,67,0.00,,,0.00,Wunderground v.1.15,2013-07-02 12:10:00,
2013-07-02 07:15:00,65.0,53.8,30.08,North,350,3.0,3.0,67,0.00,,,0.00,Wunderground v.1.15,2013-07-02 12:15:00,
2013-07-02 07:25:00,65.5,53.8,30.09,North,350,3.0,3.0,66,0.00,,,0.00,Wunderground v.1.15,2013-07-02 12:25:00,
2013-07-02 07:30:00,65.9,53.8,30.09,North,355,3.0,3.0,65,0.00,,,0.00,Wunderground v.1.15,2013-07-02 12:30:00,
2013-07-02 07:35:00,66.2,54.1,30.09,North,5,3.0,3.0,65,0.00,,,0.00,Wunderground v.1.15,2013-07-02 12:35:00,
2013-07-02 07:40:00,66.6,54.0,30.09,North,5,3.0,3.0,64,0.00,,,0.00,Wunderground v.1.15,2013-07-02 12:40:00,
2013-07-02 07:45:00,67.0,54.4,30.09,North,355,2.0,3.0,64,0.00,,,0.00,Wunderground v.1.15,2013-07-02 12:45:00,
2013-07-02 07:50:00,67.3,54.3,30.09,North,360,3.0,4.0,63,0.00,,,0.00,Wunderground v.1.15,2013-07-02 12:50:00,
2013-07-02 08:00:00,68.1,54.6,30.09,NNE,19,2.0,3.0,62,0.00,,,0.00,Wunderground v.1.15,2013-07-02 13:00:00,
2013-07-02 08:05:00,68.4,54.9,30.10,NNW,343,3.0,3.0,62,0.00,,,0.00,Wunderground v.1.15,2013-07-02 13:05:00,
2013-07-02 08:10:00,68.5,54.5,30.10,NNW,346,4.0,4.0,61,0.00,,,0.00,Wunderground v.1.15,2013-07-02 13:10:00,
2013-07-02 08:15:00,68.9,54.9,30.10,NNE,18,4.0,4.0,61,0.00,,,0.00,Wunderground v.1.15,2013-07-02 13:15:00,
2013-07-02 08:20:00,69.2,55.2,30.10,NNE,12,3.0,3.0,61,0.00,,,0.00,Wunderground v.1.15,2013-07-02 13:20:00,
2013-07-02 08:25:00,69.5,55.5,30.10,North,5,3.0,3.0,61,0.00,,,0.00,Wunderground v.1.15,2013-07-02 13:25:00,
2013-07-02 08:35:00,70.2,55.2,30.10,NNW,347,4.0,6.0,59,0.00,,,0.00,Wunderground v.1.15,2013-07-02 13:35:00,
2013-07-02 08:40:00,70.4,55.8,30.10,NNE,19,5.0,5.0,60,0.00,,,0.00,Wunderground v.1.15,2013-07-02 13:40:00,
2013-07-02 08:45:00,70.9,55.4,30.10,North,5,4.0,5.0,58,0.00,,,0.00,Wunderground v.1.15,2013-07-02 13:45:00,
2013-07-02 08:50:00,71.4,55.9,30.10,NNE,26,4.0,5.0,58,0.00,,,0.00,Wunderground v.1.15,2013-07-02 13:50:00,
2013-07-02 09:00:00,72.4,55.3,30.10,NNE,13,4.0,5.0,55,0.00,,,0.00,Wunderground v.1.15,2013-07-02 14:00:00,
2013-07-02 09:05:00,72.2,54.6,30.10,North,355,5.0,6.0,54,0.00,,,0.00,Wunderground v.1.15,2013-07-02 14:05:00,
2013-07-02 09:10:00,72.7,55.6,30.10,North,355,5.0,5.0,55,0.00,,,0.00,Wunderground v.1.15,2013-07-02 14:10:00,
2013-07-02 09:20:00,73.4,55.7,30.10,North,351,4.0,4.0,54,0.00,,,0.00,Wunderground v.1.15,2013-07-02 14:20:00,
2013-07-02 09:25:00,73.6,55.9,30.10,NNE,24,4.0,5.0,54,0.00,,,0.00,Wunderground v.1.15,2013-07-02 14:25:00,
2013-07-02 09:30:00,73.9,55.7,30.10,North,355,4.0,5.0,53,0.00,,,0.00,Wunderground v.1.15,2013-07-02 14:30:00,
2013-07-02 09:40:00,74.7,56.4,30.10,NNE,15,4.0,4.0,53,0.00,,,0.00,Wunderground v.1.15,2013-07-02 14:40:00,
2013-07-02 09:45:00,74.9,57.1,30.10,NNW,344,3.0,4.0,54,0.00,,,0.00,Wunderground v.1.15,2013-07-02 14:45:00,
2013-07-02 09:50:00,75.6,56.7,30.10,NNW,328,3.0,4.0,52,0.00,,,0.00,Wunderground v.1.15,2013-07-02 14:50:00,
2013-07-02 09:55:00,76.0,55.5,30.10,NNE,13,3.0,4.0,49,0.00,,,0.00,Wunderground v.1.15,2013-07-02 14:55:00,
2013-07-02 10:05:00,76.9,55.7,30.10,North,360,3.0,3.0,48,0.00,,,0.00,Wunderground v.1.15,2013-07-02 15:05:00,
2013-07-02 10:10:00,77.3,56.1,30.10,NNW,329,4.0,4.0,48,0.00,,,0.00,Wunderground v.1.15,2013-07-02 15:10:00,
2013-07-02 10:15:00,77.4,55.0,30.10,North,360,4.0,6.0,46,0.00,,,0.00,Wunderground v.1.15,2013-07-02 15:15:00,
2013-07-02 10:25:00,78.1,55.0,30.10,NNW,346,5.0,5.0,45,0.00,,,0.00,Wunderground v.1.15,2013-07-02 15:25:00,
2013-07-02 10:30:00,78.1,55.0,30.09,NNW,340,4.0,6.0,45,0.00,,,0.00,Wunderground v.1.15,2013-07-02 15:30:00,
2013-07-02 10:40:00,79.2,54.1,30.09,NE,46,5.0,5.0,42,0.00,,,0.00,Wunderground v.1.15,2013-07-02 15:40:00,
2013-07-02 10:45:00,79.0,53.9,30.09,ENE,63,5.0,5.0,42,0.00,,,0.00,Wunderground v.1.15,2013-07-02 15:45:00,
2013-07-02 10:50:00,78.8,54.4,30.09,NNE,33,5.0,5.0,43,0.00,,,0.00,Wunderground v.1.15,2013-07-02 15:50:00,
2013-07-02 10:55:00,78.7,52.3,30.09,NE,34,7.0,7.0,40,0.00,,,0.00,Wunderground v.1.15,2013-07-02 15:55:00,
2013-07-02 11:05:00,79.5,53.7,30.09,North,5,5.0,6.0,41,0.00,,,0.00,Wunderground v.1.15,2013-07-02 16:05:00,
2013-07-02 11:15:00,79.7,51.8,30.09,NNE,21,7.0,7.0,38,0.00,,,0.00,Wunderground v.1.15,2013-07-02 16:15:00,
2013-07-02 11:20:00,79.7,51.8,30.10,North,350,8.0,8.0,38,0.00,,,0.00,Wunderground v.1.15,2013-07-02 16:20:00,
2013-07-02 11:25:00,79.8,52.6,30.10,North,355,5.0,8.0,39,0.00,,,0.00,Wunderground v.1.15,2013-07-02 16:25:00,
2013-07-02 11:35:00,80.5,52.6,30.10,NW,306,6.0,7.0,38,0.00,,,0.00,Wunderground v.1.15,2013-07-02 16:35:00,
2013-07-02 11:45:00,80.7,52.0,30.09,NNW,348,5.0,7.0,37,0.00,,,0.00,Wunderground v.1.15,2013-07-02 16:45:00,
2013-07-02 11:50:00,80.7,51.3,30.10,NE,55,4.0,5.0,36,0.00,,,0.00,Wunderground v.1.15,2013-07-02 16:50:00,
2013-07-02 11:55:00,80.6,51.9,30.09,NE,49,5.0,6.0,37,0.00,,,0.00,Wunderground v.1.15,2013-07-02 16:55:00,
2013-07-02 12:00:00,80.4,51.7,30.09,North,360,7.0,9.0,37,0.00,,,0.00,Wunderground v.1.15,2013-07-02 17:00:00,
2013-07-02 12:05:00,80.2,51.6,30.09,NNE,15,7.0,9.0,37,0.00,,,0.00,Wunderground v.1.15,2013-07-02 17:05:00,
2013-07-02 12:15:00,80.8,52.1,30.09,NNW,340,4.0,5.0,37,0.00,,,0.00,Wunderground v.1.15,2013-07-02 17:15:00,
2013-07-02 12:20:00,80.9,52.2,30.09,NNW,347,4.0,6.0,37,0.00,,,0.00,Wunderground v.1.15,2013-07-02 17:20:00,
2013-07-02 12:25:00,81.0,52.3,30.09,North,5,5.0,7.0,37,0.00,,,0.00,Wunderground v.1.15,2013-07-02 17:25:00,
2013-07-02 12:30:00,80.6,51.9,30.09,NE,37,6.0,6.0,37,0.00,,,0.00,Wunderground v.1.15,2013-07-02 17:30:00,
2013-07-02 12:35:00,81.1,50.9,30.09,NNE,19,5.0,6.0,35,0.00,,,0.00,Wunderground v.1.15,2013-07-02 17:35:00,
2013-07-02 12:45:00,81.8,51.5,30.09,North,355,6.0,6.0,35,0.00,,,0.00,Wunderground v.1.15,2013-07-02 17:45:00,
2013-07-02 12:50:00,82.0,51.6,30.09,North,349,6.0,9.0,35,0.00,,,0.00,Wunderground v.1.15,2013-07-02 17:50:00,
2013-07-02 12:55:00,82.0,51.6,30.08,North,360,7.0,9.0,35,0.00,,,0.00,Wunderground v.1.15,2013-07-02 17:55:00,
2013-07-02 13:00:00,81.7,50.6,30.08,North,9,7.0,7.0,34,0.00,,,0.00,Wunderground v.1.15,2013-07-02 18:00:00,
2013-07-02 13:05:00,81.6,52.1,30.08,North,5,7.0,7.0,36,0.00,,,0.00,Wunderground v.1.15,2013-07-02 18:05:00,
2013-07-02 13:10:00,81.8,53.0,30.08,NNW,341,6.0,12.0,37,0.00,,,0.00,Wunderground v.1.15,2013-07-02 18:10:00,
2013-07-02 13:15:00,81.1,50.9,30.08,NE,34,8.0,12.0,35,0.00,,,0.00,Wunderground v.1.15,2013-07-02 18:15:00,
2013-07-02 13:25:00,81.8,51.5,30.08,NE,42,6.0,9.0,35,0.00,,,0.00,Wunderground v.1.15,2013-07-02 18:25:00,
2013-07-02 13:30:00,81.9,52.3,30.08,NNW,344,5.0,5.0,36,0.00,,,0.00,Wunderground v.1.15,2013-07-02 18:30:00,
2013-07-02 13:35:00,82.3,51.1,30.07,North,5,4.0,5.0,34,0.00,,,0.00,Wunderground v.1.15,2013-07-02 18:35:00,
2013-07-02 13:40:00,82.5,50.5,30.07,North,360,4.0,6.0,33,0.00,,,0.00,Wunderground v.1.15,2013-07-02 18:40:00,
2013-07-02 13:45:00,83.1,51.0,30.07,NNE,15,5.0,9.0,33,0.00,,,0.00,Wunderground v.1.15,2013-07-02 18:45:00,
2013-07-02 13:55:00,82.6,50.6,30.07,East,96,6.0,7.0,33,0.00,,,0.00,Wunderground v.1.15,2013-07-02 18:55:00,
2013-07-02 14:00:00,83.2,51.1,30.06,NNE,23,6.0,11.0,33,0.00,,,0.00,Wunderground v.1.15,2013-07-02 19:00:00,
2013-07-02 14:10:00,83.9,50.0,30.06,NE,42,6.0,8.0,31,0.00,,,0.00,Wunderground v.1.15,2013-07-02 19:10:00,
2013-07-02 14:15:00,83.2,49.4,30.05,NNE,12,6.0,8.0,31,0.00,,,0.00,Wunderground v.1.15,2013-07-02 19:15:00,
2013-07-02 14:20:00,83.7,50.7,30.05,NNE,31,4.0,4.0,32,0.00,,,0.00,Wunderground v.1.15,2013-07-02 19:20:00,
2013-07-02 14:25:00,83.6,48.9,30.05,NE,40,4.0,6.0,30,0.00,,,0.00,Wunderground v.1.15,2013-07-02 19:25:00,
2013-07-02 14:30:00,83.5,48.8,30.05,North,349,7.0,7.0,30,0.00,,,0.00,Wunderground v.1.15,2013-07-02 19:30:00,
2013-07-02 14:35:00,83.4,48.7,30.05,North,5,8.0,10.0,30,0.00,,,0.00,Wunderground v.1.15,2013-07-02 19:35:00,
2013-07-02 14:45:00,83.4,49.6,30.05,ENE,69,8.0,8.0,31,0.00,,,0.00,Wunderground v.1.15,2013-07-02 19:45:00,
2013-07-02 14:50:00,83.8,49.9,30.04,NNW,333,6.0,7.0,31,0.00,,,0.00,Wunderground v.1.15,2013-07-02 19:50:00,
2013-07-02 15:00:00,84.5,49.7,30.04,NW,319,5.0,10.0,30,0.00,,,0.00,Wunderground v.1.15,2013-07-02 20:00:00,
2013-07-02 15:10:00,83.8,49.9,30.04,North,360,7.0,11.0,31,0.00,,,0.00,Wunderground v.1.15,2013-07-02 20:10:00,
2013-07-02 15:15:00,84.2,51.1,30.04,NNE,26,7.0,11.0,32,0.00,,,0.00,Wunderground v.1.15,2013-07-02 20:15:00,
2013-07-02 15:20:00,83.5,49.7,30.03,NE,46,8.0,8.0,31,0.00,,,0.00,Wunderground v.1.15,2013-07-02 20:20:00,
2013-07-02 15:25:00,83.3,49.5,30.03,NNW,338,8.0,8.0,31,0.00,,,0.00,Wunderground v.1.15,2013-07-02 20:25:00,
2013-07-02 15:30:00,83.3,50.4,30.03,NNE,31,7.0,7.0,32,0.00,,,0.00,Wunderground v.1.15,2013-07-02 20:30:00,
2013-07-02 15:35:00,83.9,50.9,30.03,NNW,345,7.0,7.0,32,0.00,,,0.00,Wunderground v.1.15,2013-07-02 20:35:00,
2013-07-02 15:40:00,84.0,49.2,30.03,NNE,12,6.0,6.0,30,0.00,,,0.00,Wunderground v.1.15,2013-07-02 20:40:00,
2013-07-02 15:45:00,84.1,51.1,30.03,NNW,331,5.0,7.0,32,0.00,,,0.00,Wunderground v.1.15,2013-07-02 20:45:00,
2013-07-02 15:55:00,84.2,50.3,30.02,North,360,6.0,6.0,31,0.00,,,0.00,Wunderground v.1.15,2013-07-02 20:55:00,
2013-07-02 16:00:00,84.3,50.4,30.02,NNE,17,6.0,6.0,31,0.00,,,0.00,Wunderground v.1.15,2013-07-02 21:00:00,
2013-07-02 16:05:00,84.1,50.2,30.02,North,350,5.0,6.0,31,0.00,,,0.00,Wunderground v.1.15,2013-07-02 21:05:00,
2013-07-02 16:15:00,84.2,51.1,30.02,North,360,4.0,5.0,32,0.00,,,0.00,Wunderground v.1.15,2013-07-02 21:15:00,
2013-07-02 16:20:00,84.1,50.2,30.02,North,5,5.0,6.0,31,0.00,,,0.00,Wunderground v.1.15,2013-07-02 21:20:00,
2013-07-02 16:25:00,83.5,50.5,30.02,NNE,15,7.0,7.0,32,0.00,,,0.00,Wunderground v.1.15,2013-07-02 21:25:00,
2013-07-02 16:35:00,84.4,51.3,30.02,North,5,5.0,6.0,32,0.00,,,0.00,Wunderground v.1.15,2013-07-02 21:35:00,
2013-07-02 16:40:00,84.6,51.5,30.02,NNE,17,5.0,5.0,32,0.00,,,0.00,Wunderground v.1.15,2013-07-02 21:40:00,
2013-07-02 16:50:00,84.8,52.5,30.01,NNE,26,6.0,6.0,33,0.00,,,0.00,Wunderground v.1.15,2013-07-02 21:50:00,
2013-07-02 16:55:00,84.5,52.2,30.01,NE,51,7.0,9.0,33,0.00,,,0.00,Wunderground v.1.15,2013-07-02 21:55:00,
2013-07-02 17:00:00,83.9,51.7,30.01,NNE,33,7.0,7.0,33,0.00,,,0.00,Wunderground v.1.15,2013-07-02 22:00:00,
2013-07-02 17:10:00,84.0,52.6,30.01,NE,45,6.0,15.0,34,0.00,,,0.00,Wunderground v.1.15,2013-07-02 22:10:00,
2013-07-02 17:20:00,83.5,52.2,30.01,NE,42,9.0,10.0,34,0.00,,,0.00,Wunderground v.1.15,2013-07-02 22:20:00,
2013-07-02 17:25:00,83.0,52.5,30.01,NE,56,9.0,10.0,35,0.00,,,0.00,Wunderground v.1.15,2013-07-02 22:25:00,
2013-07-02 17:35:00,83.6,52.3,30.00,North,9,5.0,8.0,34,0.00,,,0.00,Wunderground v.1.15,2013-07-02 22:35:00,
2013-07-02 17:45:00,84.1,51.9,30.00,NNE,28,5.0,5.0,33,0.00,,,0.00,Wunderground v.1.15,2013-07-02 22:45:00,
2013-07-02 17:50:00,84.4,52.1,30.00,NNW,339,5.0,7.0,33,0.00,,,0.00,Wunderground v.1.15,2013-07-02 22:50:00,
2013-07-02 17:55:00,84.3,52.1,30.00,North,10,5.0,7.0,33,0.00,,,0.00,Wunderground v.1.15,2013-07-02 22:55:00,
2013-07-02 18:00:00,84.2,52.0,30.00,NNE,20,4.0,7.0,33,0.00,,,0.00,Wunderground v.1.15,2013-07-02 23:00:00,
2013-07-02 18:05:00,84.6,53.1,30.00,North,5,3.0,7.0,34,0.00,,,0.00,Wunderground v.1.15,2013-07-02 23:05:00,
2013-07-02 18:15:00,84.5,52.2,30.00,NE,50,5.0,8.0,33,0.00,,,0.00,Wunderground v.1.15,2013-07-02 23:15:00,
2013-07-02 18:25:00,83.6,50.6,30.00,NE,39,6.0,8.0,32,0.00,,,0.00,Wunderground v.1.15,2013-07-02 23:25:00,
2013-07-02 18:30:00,83.5,51.4,30.00,NE,55,5.0,5.0,33,0.00,,,0.00,Wunderground v.1.15,2013-07-02 23:30:00,
2013-07-02 18:35:00,83.9,50.9,30.00,North,355,4.0,5.0,32,0.00,,,0.00,Wunderground v.1.15,2013-07-02 23:35:00,
2013-07-02 18:40:00,84.1,51.1,30.00,NNE,24,4.0,4.0,32,0.00,,,0.00,Wunderground v.1.15,2013-07-02 23:40:00,
2013-07-02 18:45:00,84.1,51.1,30.00,NNE,32,3.0,4.0,32,0.00,,,0.00,Wunderground v.1.15,2013-07-02 23:45:00,
2013-07-02 18:50:00,83.9,51.7,30.00,NNE,23,3.0,3.0,33,0.00,,,0.00,Wunderground v.1.15,2013-07-02 23:50:00,
2013-07-02 18:55:00,84.2,52.0,30.00,ENE,63,3.0,4.0,33,0.00,,,0.00,Wunderground v.1.15,2013-07-02 23:55:00,
2013-07-02 19:00:00,84.0,51.0,30.00,NE,46,3.0,6.0,32,0.00,,,0.00,Wunderground v.1.15,2013-07-03 00:00:00,
2013-07-02 19:05:00,83.8,52.4,30.00,ENE,59,5.0,8.0,34,0.00,,,0.00,Wunderground v.1.15,2013-07-03 00:05:00,
2013-07-02 19:10:00,83.5,52.2,30.00,NNE,27,5.0,5.0,34,0.00,,,0.00,Wunderground v.1.15,2013-07-03 00:10:00,
2013-07-02 19:15:00,83.6,53.1,30.00,NE,54,4.0,5.0,35,0.00,,,0.00,Wunderground v.1.15,2013-07-03 00:15:00,
2013-07-02 19:20:00,83.6,53.1,30.00,NE,53,3.0,3.0,35,0.00,,,0.00,Wunderground v.1.15,2013-07-03 00:20:00,
2013-07-02 19:25:00,83.9,52.5,30.00,NE,43,2.0,3.0,34,0.00,,,0.00,Wunderground v.1.15,2013-07-03 00:25:00,
2013-07-02 19:30:00,84.0,52.6,30.00,NNE,18,2.0,5.0,34,0.00,,,0.00,Wunderground v.1.15,2013-07-03 00:30:00,
2013-07-02 19:35:00,83.7,52.3,30.00,NNE,26,3.0,5.0,34,0.00,,,0.00,Wunderground v.1.15,2013-07-03 00:35:00,
2013-07-02 19:40:00,83.6,51.5,30.00,NNE,24,4.0,5.0,33,0.00,,,0.00,Wunderground v.1.15,2013-07-03 00:40:00,
2013-07-02 19:45:00,83.4,52.1,30.00,ENE,67,4.0,5.0,34,0.00,,,0.00,Wunderground v.1.15,2013-07-03 00:45:00,
2013-07-02 19:50:00,83.2,51.1,30.00,NE,47,4.0,4.0,33,0.00,,,0.00,Wunderground v.1.15,2013-07-03 00:50:00,
2013-07-02 19:55:00,83.0,51.7,30.00,NNE,18,4.0,4.0,34,0.00,,,0.00,Wunderground v.1.15,2013-07-03 00:55:00,
2013-07-02 20:00:00,83.0,51.7,30.00,NE,44,4.0,4.0,34,0.00,,,0.00,Wunderground v.1.15,2013-07-03 01:00:00,
2013-07-02 20:10:00,82.7,52.3,30.00,NE,52,3.0,5.0,35,0.00,,,0.00,Wunderground v.1.15,2013-07-03 01:10:00,
2013-07-02 20:15:00,82.4,52.8,30.01,NE,53,3.0,5.0,36,0.00,,,0.00,Wunderground v.1.15,2013-07-03 01:15:00,
2013-07-02 20:25:00,81.8,53.0,30.01,NE,37,3.0,4.0,37,0.00,,,0.00,Wunderground v.1.15,2013-07-03 01:25:00,
2013-07-02 20:30:00,81.5,53.4,30.01,NE,43,4.0,4.0,38,0.00,,,0.00,Wunderground v.1.15,2013-07-03 01:30:00,
2013-07-02 20:35:00,81.3,53.3,30.01,NE,43,3.0,4.0,38,0.00,,,0.00,Wunderground v.1.15,2013-07-03 01:35:00,
2013-07-02 20:40:00,81.2,53.2,30.01,NE,49,3.0,3.0,38,0.00,,,0.00,Wunderground v.1.15,2013-07-03 01:40:00,
2013-07-02 20:45:00,81.1,53.1,30.01,NE,49,3.0,4.0,38,0.00,,,0.00,Wunderground v.1.15,2013-07-03 01:45:00,
2013-07-02 20:50:00,80.9,52.9,30.01,NE,49,3.0,3.0,38,0.00,,,0.00,Wunderground v.1.15,2013-07-03 01:50:00,
2013-07-02 20:55:00,80.8,52.8,30.01,NE,45,3.0,4.0,38,0.00,,,0.00,Wunderground v.1.15,2013-07-03 01:55:00,
2013-07-02 21:00:00,80.6,52.6,30.01,NE,45,3.0,3.0,38,0.00,,,0.00,Wunderground v.1.15,2013-07-03 02:00:00,
2013-07-02 21:05:00,80.5,53.3,30.01,NE,50,3.0,4.0,39,0.00,,,0.00,Wunderground v.1.15,2013-07-03 02:05:00,
2013-07-02 21:10:00,80.2,53.7,30.01,ENE,59,3.0,3.0,40,0.00,,,0.00,Wunderground v.1.15,2013-07-03 02:10:00,
2013-07-02 21:15:00,79.7,55.2,30.01,ESE,105,3.0,3.0,43,0.00,,,0.00,Wunderground v.1.15,2013-07-03 02:15:00,
2013-07-02 21:20:00,79.2,55.4,30.01,ESE,105,2.0,2.0,44,0.00,,,0.00,Wunderground v.1.15,2013-07-03 02:20:00,
2013-07-02 21:25:00,78.8,55.0,30.01,ESE,105,1.0,2.0,44,0.00,,,0.00,Wunderground v.1.15,2013-07-03 02:25:00,
2013-07-02 21:30:00,78.4,55.3,30.01,ESE,105,1.0,1.0,45,0.00,,,0.00,Wunderground v.1.15,2013-07-03 02:30:00,
2013-07-02 21:35:00,78.2,55.1,30.01,ESE,105,1.0,1.0,45,0.00,,,0.00,Wunderground v.1.15,2013-07-03 02:35:00,
2013-07-02 21:40:00,77.9,55.5,30.01,ESE,123,1.0,1.0,46,0.00,,,0.00,Wunderground v.1.15,2013-07-03 02:40:00,
2013-07-02 21:45:00,77.7,55.3,30.01,SE,124,1.0,2.0,46,0.00,,,0.00,Wunderground v.1.15,2013-07-03 02:45:00,
2013-07-02 21:50:00,77.7,55.3,30.01,SE,124,1.0,1.0,46,0.00,,,0.00,Wunderground v.1.15,2013-07-03 02:50:00,
2013-07-02 22:00:00,77.9,54.8,30.02,SE,124,2.0,3.0,45,0.00,,,0.00,Wunderground v.1.15,2013-07-03 03:00:00,
2013-07-02 22:05:00,77.9,55.5,30.02,SE,124,1.0,3.0,46,0.00,,,0.00,Wunderground v.1.15,2013-07-03 03:05:00,
2013-07-02 22:10:00,77.7,55.3,30.02,SE,134,2.0,2.0,46,0.00,,,0.00,Wunderground v.1.15,2013-07-03 03:10:00,
2013-07-02 22:15:00,77.5,55.1,30.02,SE,135,2.0,2.0,46,0.00,,,0.00,Wunderground v.1.15,2013-07-03 03:15:00,
2013-07-02 22:25:00,77.3,55.5,30.02,SE,135,1.0,2.0,47,0.00,,,0.00,Wunderground v.1.15,2013-07-03 03:25:00,
2013-07-02 22:30:00,77.2,54.8,30.02,SE,135,1.0,2.0,46,0.00,,,0.00,Wunderground v.1.15,2013-07-03 03:30:00,
2013-07-02 22:35:00,77.1,55.3,30.03,SE,134,1.0,2.0,47,0.00,,,0.00,Wunderground v.1.15,2013-07-03 03:35:00,
2013-07-02 23:00:00,76.5,55.3,30.03,SE,134,2.0,2.0,48,0.00,,,0.00,Wunderground v.1.15,2013-07-03 04:00:00,
2013-07-02 23:05:00,76.4,55.8,30.03,SE,135,1.0,2.0,49,0.00,,,0.00,Wunderground v.1.15,2013-07-03 04:05:00,
2013-07-02 23:10:00,76.0,55.5,30.03,SE,134,1.0,1.0,49,0.00,,,0.00,Wunderground v.1.15,2013-07-03 04:10:00,
2013-07-02 23:15:00,75.8,55.3,30.03,SE,135,2.0,2.0,49,0.00,,,0.00,Wunderground v.1.15,2013-07-03 04:15:00,
2013-07-02 23:20:00,75.6,55.6,30.04,SE,135,2.0,2.0,50,0.00,,,0.00,Wunderground v.1.15,2013-07-03 04:20:00,
2013-07-02 23:30:00,75.4,55.5,30.04,SE,135,1.0,1.0,50,0.00,,,0.00,Wunderground v.1.15,2013-07-03 04:30:00,
2013-07-02 23:35:00,75.3,55.9,30.04,SE,135,0.0,1.0,51,0.00,,,0.00,Wunderground v.1.15,2013-07-03 04:35:00,
2013-07-02 23:40:00,75.3,55.4,30.04,SE,135,0.0,1.0,50,0.00,,,0.00,Wunderground v.1.15,2013-07-03 04:40:00,
2013-07-02 23:45:00,75.2,55.8,30.04,SE,134,1.0,1.0,51,0.00,,,0.00,Wunderground v.1.15,2013-07-03 04:45:00,
2013-07-02 23:50:00,75.0,55.6,30.04,SE,134,2.0,2.0,51,0.00,,,0.00,Wunderground v.1.15,2013-07-03 04:50:00,
2013-07-02 23:55:00,74.8,55.5,30.04,SE,134,2.0,2.0,51,0.00,,,0.00,Wunderground v.1.15,2013-07-03 04:55:00,